This is the latest recevied weather packets stored in our database for station/object KB3GVC-13. If no packets are shown the sender has not sent any weather packets the latest 10 day(s).
| Time | Temp. | Humidity | Pressure | Rain* | Wind** | Luminosity | Snow |
|---|---|---|---|---|---|---|---|
| 1777760293 | 15.56° C | 37% | 1012.4 hPa | 0 mm | - | - | - |
| 1777759990 | 16.11° C | 36% | 1012.5 hPa | 0 mm | - | - | - |
| 1777759687 | 16.11° C | 36% | 1012.5 hPa | 0 mm | - | - | - |
| 1777759383 | 16.11° C | 37% | 1012.4 hPa | 0 mm | - | - | - |
| 1777759080 | 15.56° C | 36% | 1012.4 hPa | 0 mm | - | - | - |
| 1777758777 | 15° C | 37% | 1012.4 hPa | 0 mm | - | - | - |
| 1777758474 | 15° C | 38% | 1012.5 hPa | 0 mm | - | - | - |
| 1777758171 | 15° C | 38% | 1012.4 hPa | 0 mm | - | - | - |
| 1777757868 | 15° C | 38% | 1012.4 hPa | 0 mm | - | - | - |
| 1777757565 | 15° C | 40% | 1012.4 hPa | 0 mm | - | - | - |
| 1777757264 | 15.56° C | 37% | 1012.4 hPa | 0 mm | - | - | - |
| 1777756962 | 15.56° C | 34% | 1012.4 hPa | 0 mm | - | - | - |
| 1777756657 | 16.67° C | 37% | 1012.2 hPa | 0 mm | - | - | - |
| 1777756354 | 16.67° C | 35% | 1012.2 hPa | 0 mm | - | - | - |
| 1777756051 | 15.56° C | 37% | 1012.1 hPa | 0 mm | - | - | - |
| 1777755749 | 15.56° C | 36% | 1012 hPa | 0 mm | - | - | - |
| 1777755446 | 15.56° C | 39% | 1012.1 hPa | 0 mm | - | - | - |
| 1777755142 | 15.56° C | 39% | 1011.9 hPa | 0 mm | - | - | - |
| 1777754839 | 15.56° C | 37% | 1011.8 hPa | 0 mm | - | - | - |
| 1777754537 | 15.56° C | 37% | 1011.8 hPa | 0 mm | - | - | - |
| 1777754234 | 15.56° C | 39% | 1012 hPa | 0 mm | - | - | - |
| 1777753933 | 15.56° C | 38% | 1012 hPa | 0 mm | - | - | - |
| 1777753626 | 16.67° C | 37% | 1012 hPa | 0 mm | - | - | - |
| 1777753325 | 16.67° C | 35% | 1011.9 hPa | 0 mm | - | - | - |
| 1777753022 | 16.67° C | 34% | 1011.8 hPa | 0 mm | - | - | - |
* Rain latest hour (hover to see other rain measurements)
** Current wind speed in m/s (hover to see current wind gust speed)